Simultaneous Nadir Overpasses (SNOs) Predictions

Prediction of SNOs between GOES-16 and NOAA-19 Satellite Orbit:

Table of predicted SNOs for the next 14.0 days since TLE Epoch: 11/9/2018
Index Date Time (GOES-16) GOES-16 Lat,Lon NOAA-19 Lat,Lon Distance(km) Time Diff (sec)
1 11/10/2018 09:35:20 -0.00, -75.20 0.68, -78.11 332.47 80
2 11/11/2018 09:26:26 0.00, -75.21 -0.00, -75.30 9.76 80
3 11/12/2018 09:14:51 0.00, -75.21 -0.63, -72.46 313.90 80
4 11/14/2018 21:33:24 -0.00, -75.23 -0.53, -77.49 258.92 80
5 11/15/2018 21:24:30 0.00, -75.24 0.15, -74.67 64.91 80
6 11/16/2018 21:12:54 0.00, -75.25 0.78, -71.84 388.78 80
7 11/19/2018 09:34:10 -0.00, -75.29 0.38, -76.88 182.28 80
8 11/20/2018 09:19:56 -0.00, -75.30 -0.32, -74.06 142.18 80
9 11/21/2018 09:08:20 -0.00, -75.32 -0.95, -71.23 466.62 80
10 11/22/2018 21:43:50 0.00, -75.34 -0.86, -79.09 428.34 80




NCC Satellite Simultaneous Nadir Overpasses (SNOs) Prediction Service
